Time,TemperatureF,DewpointF,PressureIn,WindDirection,WindDirectionDegrees,WindSpeedMPH,WindSpeedGustMPH,Humidity,HourlyPrecipIn,Conditions,Clouds,dailyrainin,SoftwareType,DateUTC
2013-07-19 00:02:00,49.8,48.2,29.99,SE,134,3.0,3.0,94,0.00,,,0.04,meteohub,2013-07-19 07:02:00,
2013-07-19 00:07:00,49.6,48.0,29.99,SE,134,1.0,3.0,94,0.00,,,0.04,meteohub,2013-07-19 07:07:00,
2013-07-19 00:12:00,49.6,48.0,29.99,SE,134,2.0,3.0,94,0.00,,,0.04,meteohub,2013-07-19 07:12:00,
2013-07-19 00:17:00,49.6,48.0,29.99,SE,137,1.0,4.0,94,0.00,,,0.04,meteohub,2013-07-19 07:17:00,
2013-07-19 00:22:00,49.6,48.0,29.99,SE,137,0.0,4.0,94,0.00,,,0.04,meteohub,2013-07-19 07:22:00,
2013-07-19 00:27:00,49.5,47.5,29.99,SE,137,0.0,4.0,93,0.00,,,0.04,meteohub,2013-07-19 07:27:00,
2013-07-19 00:32:00,49.5,47.8,29.99,SE,136,1.0,3.0,94,0.00,,,0.04,meteohub,2013-07-19 07:32:00,
2013-07-19 00:37:00,49.5,47.8,29.99,SE,137,0.0,3.0,94,0.00,,,0.04,meteohub,2013-07-19 07:37:00,
2013-07-19 00:42:00,49.3,47.3,29.99,SE,137,0.0,3.0,93,0.00,,,0.04,meteohub,2013-07-19 07:42:00,
2013-07-19 00:47:00,49.1,47.5,29.99,SE,137,0.0,2.0,94,0.00,,,0.04,meteohub,2013-07-19 07:47:00,
2013-07-19 00:52:00,49.3,47.7,29.99,SE,136,0.0,1.0,94,0.00,,,0.04,meteohub,2013-07-19 07:52:00,
2013-07-19 00:57:00,49.3,47.8,29.99,SE,136,0.0,2.0,95,0.00,,,0.04,meteohub,2013-07-19 07:57:00,
2013-07-19 01:02:00,49.3,47.7,29.99,SE,136,0.0,2.0,94,0.00,,,0.04,meteohub,2013-07-19 08:02:00,
2013-07-19 01:07:00,48.9,46.9,29.99,SE,136,0.0,2.0,93,0.00,,,0.04,meteohub,2013-07-19 08:07:00,
2013-07-19 01:12:00,48.9,47.3,29.99,SE,136,0.0,2.0,94,0.00,,,0.04,meteohub,2013-07-19 08:12:00,
2013-07-19 01:17:00,48.9,47.3,29.99,SE,136,0.0,3.0,94,0.00,,,0.04,meteohub,2013-07-19 08:17:00,
2013-07-19 01:22:00,48.9,47.3,29.99,SE,136,0.0,3.0,94,0.00,,,0.04,meteohub,2013-07-19 08:22:00,
2013-07-19 01:27:00,48.7,47.1,29.99,SE,136,0.0,3.0,94,0.00,,,0.04,meteohub,2013-07-19 08:27:00,
2013-07-19 01:32:00,48.7,47.1,29.99,SE,136,1.0,2.0,94,0.00,,,0.04,meteohub,2013-07-19 08:32:00,
2013-07-19 01:37:00,48.4,46.4,29.99,SE,136,0.0,2.0,93,0.00,,,0.04,meteohub,2013-07-19 08:37:00,
2013-07-19 01:42:00,48.2,46.6,29.99,SE,136,0.0,2.0,94,0.00,,,0.04,meteohub,2013-07-19 08:42:00,
2013-07-19 01:47:00,48.4,46.9,29.99,East,99,2.0,3.0,95,0.00,,,0.04,meteohub,2013-07-19 08:47:00,
2013-07-19 01:52:00,48.6,46.9,29.99,East,99,0.0,5.0,94,0.00,,,0.04,meteohub,2013-07-19 08:52:00,
2013-07-19 01:57:00,48.6,46.9,29.99,East,99,0.0,5.0,94,0.00,,,0.04,meteohub,2013-07-19 08:57:00,
2013-07-19 02:02:00,48.6,46.9,29.99,East,99,1.0,5.0,94,0.00,,,0.04,meteohub,2013-07-19 09:02:00,
2013-07-19 02:07:00,48.7,47.1,29.99,East,99,0.0,3.0,94,0.00,,,0.04,meteohub,2013-07-19 09:07:00,
2013-07-19 02:12:00,48.7,46.8,29.99,East,99,0.0,3.0,93,0.00,,,0.04,meteohub,2013-07-19 09:12:00,
2013-07-19 02:17:00,48.6,46.6,29.98,East,99,0.0,3.0,93,0.00,,,0.04,meteohub,2013-07-19 09:17:00,
2013-07-19 02:22:00,48.4,46.4,29.98,East,99,0.0,2.0,93,0.00,,,0.04,meteohub,2013-07-19 09:22:00,
2013-07-19 02:27:00,48.0,46.0,29.98,East,99,1.0,1.0,93,0.00,,,0.04,meteohub,2013-07-19 09:27:00,
2013-07-19 02:32:00,47.8,45.9,29.98,East,99,0.0,1.0,93,0.00,,,0.04,meteohub,2013-07-19 09:32:00,
2013-07-19 02:37:00,47.7,45.7,29.97,East,101,1.0,2.0,93,0.00,,,0.04,meteohub,2013-07-19 09:37:00,
2013-07-19 02:42:00,47.7,45.7,29.97,East,101,0.0,3.0,93,0.00,,,0.04,meteohub,2013-07-19 09:42:00,
2013-07-19 02:47:00,47.5,45.5,29.97,East,101,0.0,3.0,93,0.00,,,0.04,meteohub,2013-07-19 09:47:00,
2013-07-19 02:52:00,47.5,45.5,29.97,East,101,1.0,3.0,93,0.00,,,0.04,meteohub,2013-07-19 09:52:00,
2013-07-19 02:57:00,47.7,46.0,29.97,East,101,0.0,3.0,94,0.00,,,0.04,meteohub,2013-07-19 09:57:00,
2013-07-19 03:02:00,47.7,46.0,29.97,East,101,0.0,3.0,94,0.00,,,0.04,meteohub,2013-07-19 10:02:00,
2013-07-19 03:07:00,47.7,45.7,29.97,East,101,0.0,3.0,93,0.00,,,0.04,meteohub,2013-07-19 10:07:00,
2013-07-19 03:12:00,47.5,45.5,29.97,East,101,0.0,2.0,93,0.00,,,0.04,meteohub,2013-07-19 10:12:00,
2013-07-19 03:17:00,47.3,45.3,29.97,East,101,0.0,1.0,93,0.00,,,0.04,meteohub,2013-07-19 10:17:00,
2013-07-19 03:22:00,46.9,45.0,29.97,East,101,0.0,1.0,93,0.00,,,0.04,meteohub,2013-07-19 10:22:00,
2013-07-19 03:27:00,46.8,45.1,29.97,East,101,0.0,0.0,94,0.00,,,0.04,meteohub,2013-07-19 10:27:00,
2013-07-19 03:32:00,46.6,45.0,29.97,East,101,0.0,0.0,94,0.00,,,0.04,meteohub,2013-07-19 10:32:00,
2013-07-19 03:37:00,46.6,45.0,29.97,East,101,0.0,0.0,94,0.00,,,0.04,meteohub,2013-07-19 10:37:00,
2013-07-19 03:42:00,46.4,44.8,29.97,East,101,0.0,1.0,94,0.00,,,0.04,meteohub,2013-07-19 10:42:00,
2013-07-19 03:47:00,46.2,44.8,29.96,East,101,0.0,1.0,95,0.00,,,0.04,meteohub,2013-07-19 10:47:00,
2013-07-19 03:52:00,46.2,44.8,29.97,East,101,0.0,1.0,95,0.00,,,0.04,meteohub,2013-07-19 10:52:00,
2013-07-19 03:57:00,46.0,44.6,29.97,East,101,0.0,0.0,95,0.00,,,0.04,meteohub,2013-07-19 10:57:00,
2013-07-19 04:02:00,45.9,44.4,29.97,East,101,0.0,0.0,95,0.00,,,0.04,meteohub,2013-07-19 11:02:00,
2013-07-19 04:07:00,45.7,44.4,29.97,East,101,0.0,1.0,95,0.00,,,0.04,meteohub,2013-07-19 11:07:00,
2013-07-19 04:12:00,45.7,44.4,29.97,East,101,0.0,1.0,95,0.00,,,0.04,meteohub,2013-07-19 11:12:00,
2013-07-19 04:17:00,45.5,44.2,29.98,East,101,0.0,1.0,95,0.00,,,0.04,meteohub,2013-07-19 11:17:00,
2013-07-19 04:22:00,45.7,44.6,29.98,East,101,2.0,2.0,96,0.00,,,0.04,meteohub,2013-07-19 11:22:00,
2013-07-19 04:27:00,45.7,44.6,29.98,East,101,0.0,2.0,96,0.00,,,0.04,meteohub,2013-07-19 11:27:00,
2013-07-19 04:32:00,45.7,44.6,29.98,East,101,0.0,2.0,96,0.00,,,0.04,meteohub,2013-07-19 11:32:00,
2013-07-19 04:37:00,45.1,43.9,29.98,East,101,0.0,2.0,95,0.00,,,0.04,meteohub,2013-07-19 11:37:00,
2013-07-19 04:42:00,45.0,43.7,29.98,East,101,0.0,1.0,95,0.00,,,0.04,meteohub,2013-07-19 11:42:00,
2013-07-19 04:47:00,45.0,43.9,29.98,East,101,0.0,1.0,96,0.00,,,0.04,meteohub,2013-07-19 11:47:00,
2013-07-19 04:52:00,45.0,43.9,29.98,East,101,0.0,1.0,96,0.00,,,0.04,meteohub,2013-07-19 11:52:00,
2013-07-19 04:57:00,45.0,43.9,29.99,East,101,1.0,2.0,96,0.00,,,0.04,meteohub,2013-07-19 11:57:00,
2013-07-19 05:02:00,45.1,44.1,29.99,East,101,0.0,2.0,96,0.00,,,0.04,meteohub,2013-07-19 12:02:00,
2013-07-19 05:07:00,45.1,44.1,29.99,East,101,0.0,2.0,96,0.00,,,0.04,meteohub,2013-07-19 12:07:00,
2013-07-19 05:12:00,45.0,43.7,29.99,East,101,0.0,2.0,95,0.00,,,0.04,meteohub,2013-07-19 12:12:00,
2013-07-19 05:17:00,44.6,43.3,29.99,East,101,0.0,2.0,95,0.00,,,0.04,meteohub,2013-07-19 12:17:00,
2013-07-19 05:22:00,44.2,42.6,29.99,East,101,0.0,2.0,94,0.00,,,0.04,meteohub,2013-07-19 12:22:00,
2013-07-19 05:27:00,44.2,43.0,29.99,SE,129,3.0,3.0,95,0.00,,,0.04,meteohub,2013-07-19 12:27:00,
2013-07-19 05:32:00,44.4,43.3,29.99,SE,129,0.0,3.0,96,0.00,,,0.04,meteohub,2013-07-19 12:32:00,
2013-07-19 05:37:00,44.6,43.5,29.99,SE,129,2.0,3.0,96,0.00,,,0.04,meteohub,2013-07-19 12:37:00,
2013-07-19 05:42:00,44.8,43.7,30.00,SE,134,0.0,3.0,96,0.00,,,0.04,meteohub,2013-07-19 12:42:00,
2013-07-19 05:47:00,44.8,43.7,30.00,SE,134,0.0,3.0,96,0.00,,,0.04,meteohub,2013-07-19 12:47:00,
2013-07-19 05:52:00,44.8,43.5,30.00,SE,134,1.0,3.0,95,0.00,,,0.04,meteohub,2013-07-19 12:52:00,
2013-07-19 05:57:00,44.8,43.5,30.00,SE,134,0.0,1.0,95,0.00,,,0.04,meteohub,2013-07-19 12:57:00,
2013-07-19 06:02:00,44.8,43.7,30.00,SE,134,2.0,2.0,96,0.00,,,0.04,meteohub,2013-07-19 13:02:00,
2013-07-19 06:07:00,45.1,44.1,30.00,SE,134,0.0,3.0,96,0.00,,,0.04,meteohub,2013-07-19 13:07:00,
2013-07-19 06:12:00,45.3,44.2,30.00,SE,134,0.0,3.0,96,0.00,,,0.04,meteohub,2013-07-19 13:12:00,
2013-07-19 06:17:00,45.3,44.2,30.00,SE,134,0.0,3.0,96,0.00,,,0.04,meteohub,2013-07-19 13:17:00,
2013-07-19 06:22:00,45.5,44.4,30.00,SE,134,0.0,1.0,96,0.00,,,0.04,meteohub,2013-07-19 13:22:00,
2013-07-19 06:27:00,45.7,44.6,30.00,SE,136,0.0,1.0,96,0.00,,,0.04,meteohub,2013-07-19 13:27:00,
2013-07-19 06:32:00,45.7,44.6,30.00,SE,136,0.0,1.0,96,0.00,,,0.04,meteohub,2013-07-19 13:32:00,
2013-07-19 06:37:00,45.9,44.8,30.00,SE,136,0.0,1.0,96,0.00,,,0.04,meteohub,2013-07-19 13:37:00,
2013-07-19 06:42:00,46.2,45.1,30.00,SE,136,0.0,0.0,96,0.00,,,0.04,meteohub,2013-07-19 13:42:00,
2013-07-19 06:47:00,46.9,46.2,30.00,SE,136,0.0,0.0,97,0.00,,,0.04,meteohub,2013-07-19 13:47:00,
2013-07-19 06:52:00,47.7,46.9,30.00,SE,136,0.0,0.0,97,0.00,,,0.04,meteohub,2013-07-19 13:52:00,
2013-07-19 06:57:00,48.6,47.5,30.00,SE,136,0.0,1.0,96,0.00,,,0.04,meteohub,2013-07-19 13:57:00,
2013-07-19 07:02:00,49.3,47.1,30.00,SE,136,0.0,1.0,92,0.00,,,0.04,meteohub,2013-07-19 14:02:00,
2013-07-19 07:07:00,50.2,48.0,30.00,SE,136,0.0,1.0,92,0.00,,,0.04,meteohub,2013-07-19 14:07:00,
2013-07-19 07:12:00,50.7,47.8,30.00,SE,136,1.0,1.0,90,0.00,,,0.04,meteohub,2013-07-19 14:12:00,
2013-07-19 07:17:00,50.9,48.0,30.00,SE,136,0.0,2.0,90,0.00,,,0.04,meteohub,2013-07-19 14:17:00,
2013-07-19 07:22:00,51.8,48.7,30.00,SE,136,0.0,2.0,89,0.00,,,0.04,meteohub,2013-07-19 14:22:00,
2013-07-19 07:27:00,52.7,48.6,30.00,SE,136,0.0,2.0,86,0.00,,,0.04,meteohub,2013-07-19 14:27:00,
2013-07-19 07:32:00,53.1,48.0,30.00,SE,136,0.0,2.0,83,0.00,,,0.04,meteohub,2013-07-19 14:32:00,
2013-07-19 07:37:00,53.6,48.6,30.00,SE,136,0.0,2.0,83,0.01,,,0.05,meteohub,2013-07-19 14:37:00,
2013-07-19 07:42:00,54.5,49.1,29.99,SE,136,0.0,2.0,82,0.01,,,0.05,meteohub,2013-07-19 14:42:00,
2013-07-19 07:47:00,55.0,48.9,29.99,SE,136,0.0,2.0,80,0.01,,,0.05,meteohub,2013-07-19 14:47:00,
2013-07-19 07:52:00,55.2,49.1,29.99,SE,136,0.0,1.0,80,0.01,,,0.05,meteohub,2013-07-19 14:52:00,
2013-07-19 07:57:00,55.8,49.6,29.99,SE,136,0.0,2.0,80,0.01,,,0.05,meteohub,2013-07-19 14:57:00,
2013-07-19 08:02:00,55.9,49.5,29.99,SE,136,0.0,2.0,79,0.01,,,0.05,meteohub,2013-07-19 15:02:00,
2013-07-19 08:07:00,56.5,50.0,29.99,SE,136,1.0,2.0,79,0.01,,,0.05,meteohub,2013-07-19 15:07:00,
2013-07-19 08:12:00,56.7,49.8,29.99,SE,136,0.0,2.0,78,0.01,,,0.05,meteohub,2013-07-19 15:12:00,
2013-07-19 08:17:00,56.8,49.3,29.99,SE,138,0.0,2.0,76,0.01,,,0.05,meteohub,2013-07-19 15:17:00,
2013-07-19 08:22:00,57.0,50.9,29.99,SE,138,0.0,2.0,80,0.01,,,0.05,meteohub,2013-07-19 15:22:00,
2013-07-19 08:27:00,57.6,50.0,29.99,SE,141,2.0,2.0,76,0.01,,,0.05,meteohub,2013-07-19 15:27:00,
2013-07-19 08:32:00,57.7,50.2,29.98,SE,142,3.0,3.0,76,0.00,,,0.05,meteohub,2013-07-19 15:32:00,
2013-07-19 08:37:00,57.9,49.6,29.98,South,190,2.0,3.0,74,0.00,,,0.05,meteohub,2013-07-19 15:37:00,
2013-07-19 08:42:00,57.9,49.6,29.98,SSW,198,2.0,3.0,74,0.00,,,0.05,meteohub,2013-07-19 15:42:00,
2013-07-19 08:47:00,57.9,50.4,29.97,SSW,198,0.0,3.0,76,0.00,,,0.05,meteohub,2013-07-19 15:47:00,
2013-07-19 08:52:00,58.3,50.4,29.97,SSW,200,0.0,3.0,75,0.00,,,0.05,meteohub,2013-07-19 15:52:00,
2013-07-19 08:57:00,58.6,50.4,29.96,SW,225,1.0,3.0,74,0.00,,,0.05,meteohub,2013-07-19 15:57:00,
2013-07-19 09:02:00,59.0,51.4,29.96,SW,225,2.0,4.0,76,0.00,,,0.05,meteohub,2013-07-19 16:02:00,
2013-07-19 09:12:00,60.1,51.4,29.96,SW,225,3.0,4.0,73,0.00,,,0.05,meteohub,2013-07-19 16:12:00,
2013-07-19 09:17:00,60.3,51.6,29.96,SW,225,0.0,4.0,73,0.00,,,0.05,meteohub,2013-07-19 16:17:00,
2013-07-19 09:22:00,61.0,51.4,29.96,WNW,298,0.0,4.0,71,0.00,,,0.05,meteohub,2013-07-19 16:22:00,
2013-07-19 09:27:00,61.0,51.4,29.96,WNW,298,1.0,4.0,71,0.00,,,0.05,meteohub,2013-07-19 16:27:00,
2013-07-19 09:32:00,61.3,52.7,29.95,WNW,298,2.0,4.0,73,0.00,,,0.05,meteohub,2013-07-19 16:32:00,
2013-07-19 09:37:00,61.9,53.4,29.95,WNW,298,3.0,4.0,74,0.00,,,0.05,meteohub,2013-07-19 16:37:00,
2013-07-19 09:42:00,62.2,53.4,29.95,West,261,4.0,4.0,73,0.00,,,0.05,meteohub,2013-07-19 16:42:00,
2013-07-19 09:47:00,62.4,52.9,29.94,West,275,3.0,5.0,71,0.00,,,0.05,meteohub,2013-07-19 16:47:00,
2013-07-19 09:52:00,63.0,53.1,29.94,West,259,1.0,5.0,70,0.00,,,0.05,meteohub,2013-07-19 16:52:00,
2013-07-19 09:57:00,63.5,53.6,29.94,WNW,285,2.0,5.0,70,0.00,,,0.05,meteohub,2013-07-19 16:57:00,
2013-07-19 10:02:00,64.0,53.2,29.94,WSW,256,2.0,4.0,68,0.00,,,0.05,meteohub,2013-07-19 17:02:00,
2013-07-19 10:07:00,64.6,54.1,29.94,West,277,4.0,4.0,69,0.00,,,0.05,meteohub,2013-07-19 17:07:00,
2013-07-19 10:17:00,64.9,53.8,29.93,WNW,282,1.0,6.0,67,0.00,,,0.05,meteohub,2013-07-19 17:17:00,
2013-07-19 10:22:00,65.7,54.9,29.93,WNW,284,2.0,6.0,68,0.00,,,0.05,meteohub,2013-07-19 17:22:00,
2013-07-19 10:27:00,65.8,54.5,29.94,WNW,284,0.0,6.0,67,0.00,,,0.05,meteohub,2013-07-19 17:27:00,
2013-07-19 10:32:00,66.0,54.3,29.93,West,261,0.0,5.0,66,0.00,,,0.05,meteohub,2013-07-19 17:32:00,
2013-07-19 10:37:00,66.0,53.1,29.93,SW,232,1.0,5.0,63,0.00,,,0.05,meteohub,2013-07-19 17:37:00,
2013-07-19 10:42:00,66.4,55.0,29.93,WSW,248,3.0,5.0,67,0.00,,,0.05,meteohub,2013-07-19 17:42:00,
2013-07-19 10:47:00,66.7,53.8,29.93,WSW,240,1.0,5.0,63,0.00,,,0.05,meteohub,2013-07-19 17:47:00,
2013-07-19 10:52:00,67.5,54.0,29.92,WSW,250,1.0,5.0,62,0.00,,,0.05,meteohub,2013-07-19 17:52:00,
2013-07-19 10:57:00,67.8,55.6,29.92,WSW,250,2.0,6.0,65,0.00,,,0.05,meteohub,2013-07-19 17:57:00,
2013-07-19 11:02:00,68.2,55.6,29.92,WNW,292,4.0,6.0,64,0.00,,,0.05,meteohub,2013-07-19 18:02:00,
2013-07-19 11:07:00,68.5,52.7,29.91,WNW,302,1.0,9.0,57,0.00,,,0.05,meteohub,2013-07-19 18:07:00,
2013-07-19 11:12:00,68.5,53.2,29.91,West,276,2.0,9.0,58,0.00,,,0.05,meteohub,2013-07-19 18:12:00,
2013-07-19 11:17:00,68.7,55.2,29.91,WSW,255,3.0,9.0,62,0.00,,,0.05,meteohub,2013-07-19 18:17:00,
2013-07-19 11:22:00,69.3,53.4,29.91,WSW,253,4.0,6.0,57,0.00,,,0.05,meteohub,2013-07-19 18:22:00,
2013-07-19 11:27:00,69.4,52.2,29.91,WNW,301,4.0,7.0,54,0.00,,,0.05,meteohub,2013-07-19 18:27:00,
2013-07-19 11:32:00,70.2,52.2,29.91,WNW,286,7.0,7.0,53,0.00,,,0.05,meteohub,2013-07-19 18:32:00,
2013-07-19 11:37:00,70.9,51.3,29.91,NW,306,3.0,7.0,50,0.00,,,0.05,meteohub,2013-07-19 18:37:00,
2013-07-19 11:42:00,71.4,53.4,29.90,WNW,296,4.0,9.0,53,0.00,,,0.05,meteohub,2013-07-19 18:42:00,
2013-07-19 11:47:00,71.8,51.1,29.90,NW,306,6.0,9.0,48,0.00,,,0.05,meteohub,2013-07-19 18:47:00,
2013-07-19 11:52:00,72.0,51.8,29.90,NW,305,4.0,9.0,49,0.00,,,0.05,meteohub,2013-07-19 18:52:00,
2013-07-19 11:57:00,72.1,54.5,29.90,WNW,287,6.0,9.0,54,0.00,,,0.05,meteohub,2013-07-19 18:57:00,
2013-07-19 12:02:00,72.1,52.5,29.90,WNW,300,3.0,9.0,50,0.00,,,0.05,meteohub,2013-07-19 19:02:00,
2013-07-19 12:12:00,72.5,51.6,29.89,WSW,240,6.0,9.0,48,0.00,,,0.05,meteohub,2013-07-19 19:12:00,
2013-07-19 12:17:00,72.3,51.4,29.89,West,276,1.0,9.0,48,0.00,,,0.05,meteohub,2013-07-19 19:17:00,
2013-07-19 12:22:00,72.7,51.8,29.89,WNW,303,5.0,9.0,48,0.00,,,0.05,meteohub,2013-07-19 19:22:00,
2013-07-19 12:27:00,73.0,52.2,29.89,WNW,300,0.0,9.0,48,0.00,,,0.05,meteohub,2013-07-19 19:27:00,
2013-07-19 12:32:00,73.4,50.7,29.88,ENE,63,3.0,7.0,45,0.00,,,0.05,meteohub,2013-07-19 19:32:00,
2013-07-19 12:37:00,73.6,50.4,29.88,WNW,285,1.0,8.0,44,0.00,,,0.05,meteohub,2013-07-19 19:37:00,
2013-07-19 12:42:00,73.4,50.7,29.88,WSW,246,3.0,8.0,45,0.00,,,0.05,meteohub,2013-07-19 19:42:00,
2013-07-19 12:47:00,73.0,49.3,29.88,West,280,2.0,8.0,43,0.00,,,0.05,meteohub,2013-07-19 19:47:00,
2013-07-19 12:52:00,73.0,50.4,29.88,WNW,292,3.0,8.0,45,0.00,,,0.05,meteohub,2013-07-19 19:52:00,
2013-07-19 12:57:00,73.4,48.9,29.87,NE,37,1.0,8.0,42,0.00,,,0.05,meteohub,2013-07-19 19:57:00,
2013-07-19 13:07:00,74.7,53.1,29.87,NW,305,2.0,10.0,47,0.00,,,0.05,meteohub,2013-07-19 20:07:00,
2013-07-19 13:12:00,74.7,50.7,29.87,WNW,284,3.0,10.0,43,0.00,,,0.05,meteohub,2013-07-19 20:12:00,
2013-07-19 13:17:00,74.1,50.2,29.86,West,271,2.0,10.0,43,0.00,,,0.05,meteohub,2013-07-19 20:17:00,
2013-07-19 13:22:00,74.3,52.2,29.86,WSW,249,1.0,8.0,46,0.00,,,0.05,meteohub,2013-07-19 20:22:00,
2013-07-19 13:27:00,74.7,52.5,29.86,WNW,290,3.0,7.0,46,0.00,,,0.05,meteohub,2013-07-19 20:27:00,
2013-07-19 13:32:00,74.8,47.5,29.86,WNW,286,4.0,6.0,38,0.00,,,0.05,meteohub,2013-07-19 20:32:00,
2013-07-19 13:37:00,74.5,47.1,29.86,WNW,284,0.0,7.0,38,0.00,,,0.05,meteohub,2013-07-19 20:37:00,
2013-07-19 13:42:00,74.3,50.4,29.86,West,265,0.0,7.0,43,0.00,,,0.05,meteohub,2013-07-19 20:42:00,
2013-07-19 13:47:00,75.0,51.1,29.86,NW,324,2.0,7.0,43,0.00,,,0.05,meteohub,2013-07-19 20:47:00,
2013-07-19 13:52:00,75.6,47.5,29.86,WNW,288,0.0,6.0,37,0.00,,,0.05,meteohub,2013-07-19 20:52:00,
2013-07-19 13:57:00,76.5,51.1,29.86,NW,304,4.0,6.0,41,0.00,,,0.05,meteohub,2013-07-19 20:57:00,
2013-07-19 14:02:00,76.8,51.3,29.86,ESE,109,3.0,6.0,41,0.00,,,0.05,meteohub,2013-07-19 21:02:00,
2013-07-19 14:07:00,75.6,51.4,29.86,East,80,13.0,13.0,43,0.00,,,0.05,meteohub,2013-07-19 21:07:00,
2013-07-19 14:12:00,73.0,51.1,29.86,SE,138,7.0,15.0,46,0.00,,,0.05,meteohub,2013-07-19 21:12:00,
2013-07-19 14:17:00,72.1,53.1,29.86,SE,142,7.0,15.0,51,0.00,,,0.05,meteohub,2013-07-19 21:17:00,
2013-07-19 14:22:00,72.5,53.4,29.86,SSE,150,7.0,15.0,51,0.00,,,0.05,meteohub,2013-07-19 21:22:00,
2013-07-19 14:27:00,72.1,53.1,29.85,SE,139,8.0,14.0,51,0.00,,,0.05,meteohub,2013-07-19 21:27:00,
2013-07-19 14:32:00,70.3,52.9,29.85,SE,146,9.0,15.0,54,0.00,,,0.05,meteohub,2013-07-19 21:32:00,
2013-07-19 14:37:00,69.1,51.8,29.86,ESE,119,4.0,16.0,54,0.00,,,0.05,meteohub,2013-07-19 21:37:00,
2013-07-19 14:42:00,68.9,51.1,29.86,SSE,148,9.0,16.0,53,0.00,,,0.05,meteohub,2013-07-19 21:42:00,
2013-07-19 14:47:00,68.4,51.1,29.86,SSE,157,10.0,13.0,54,0.00,,,0.05,meteohub,2013-07-19 21:47:00,
2013-07-19 14:52:00,67.6,50.9,29.87,SE,135,10.0,14.0,55,0.00,,,0.05,meteohub,2013-07-19 21:52:00,
2013-07-19 14:57:00,66.9,50.2,29.87,SE,132,9.0,14.0,55,0.00,,,0.05,meteohub,2013-07-19 21:57:00,
2013-07-19 15:07:00,65.8,50.7,29.87,ESE,111,9.0,14.0,58,0.00,,,0.05,meteohub,2013-07-19 22:07:00,
2013-07-19 15:12:00,65.3,51.1,29.87,SSE,165,4.0,13.0,60,0.00,,,0.05,meteohub,2013-07-19 22:12:00,
2013-07-19 15:22:00,64.9,51.1,29.87,NE,51,5.0,13.0,61,0.00,,,0.05,meteohub,2013-07-19 22:22:00,
2013-07-19 15:27:00,65.5,50.7,29.87,ESE,118,4.0,13.0,59,0.00,,,0.05,meteohub,2013-07-19 22:27:00,
2013-07-19 15:32:00,66.0,52.2,29.87,SE,144,8.0,12.0,61,0.00,,,0.05,meteohub,2013-07-19 22:32:00,
2013-07-19 15:42:00,68.0,52.2,29.87,SE,140,5.0,14.0,57,0.00,,,0.05,meteohub,2013-07-19 22:42:00,
2013-07-19 15:47:00,67.3,52.0,29.88,SE,135,5.0,13.0,58,0.00,,,0.05,meteohub,2013-07-19 22:47:00,
2013-07-19 15:52:00,66.7,50.5,29.88,SE,142,6.0,13.0,56,0.00,,,0.05,meteohub,2013-07-19 22:52:00,
2013-07-19 15:57:00,66.4,51.1,29.89,SE,131,3.0,13.0,58,0.00,,,0.05,meteohub,2013-07-19 22:57:00,
2013-07-19 16:02:00,65.8,49.6,29.90,East,94,7.0,9.0,56,0.00,,,0.05,meteohub,2013-07-19 23:02:00,
2013-07-19 16:07:00,65.8,49.6,29.90,SSE,150,5.0,13.0,56,0.00,,,0.05,meteohub,2013-07-19 23:07:00,
2013-07-19 16:12:00,65.5,50.4,29.90,ESE,113,2.0,13.0,58,0.00,,,0.05,meteohub,2013-07-19 23:12:00,
2013-07-19 16:17:00,64.9,49.8,29.90,ESE,111,1.0,7.0,58,0.00,,,0.05,meteohub,2013-07-19 23:17:00,
2013-07-19 16:22:00,64.9,49.8,29.91,SE,126,2.0,7.0,58,0.00,,,0.05,meteohub,2013-07-19 23:22:00,
2013-07-19 16:32:00,64.9,49.3,29.91,NE,51,3.0,8.0,57,0.00,,,0.05,meteohub,2013-07-19 23:32:00,
2013-07-19 16:37:00,64.0,51.3,29.91,NE,34,3.0,9.0,63,0.00,,,0.05,meteohub,2013-07-19 23:37:00,
2013-07-19 16:42:00,62.2,51.6,29.92,NE,34,0.0,9.0,68,0.00,,,0.05,meteohub,2013-07-19 23:42:00,
2013-07-19 16:47:00,61.3,52.7,29.92,WNW,291,2.0,9.0,73,0.02,,,0.07,meteohub,2013-07-19 23:47:00,
2013-07-19 16:57:00,58.3,53.4,29.93,WNW,288,3.0,8.0,84,0.03,,,0.08,meteohub,2013-07-19 23:57:00,
2013-07-19 17:02:00,57.6,53.8,29.93,NNW,327,3.0,9.0,87,0.04,,,0.09,meteohub,2013-07-20 00:02:00,
2013-07-19 17:07:00,57.6,53.8,29.94,NW,320,1.0,9.0,87,0.04,,,0.00,meteohub,2013-07-20 00:07:00,
2013-07-19 17:12:00,57.6,53.8,29.94,NW,320,0.0,7.0,87,0.04,,,0.00,meteohub,2013-07-20 00:12:00,
2013-07-19 17:17:00,57.4,53.6,29.94,NW,320,0.0,3.0,87,0.05,,,0.01,meteohub,2013-07-20 00:17:00,
2013-07-19 17:22:00,57.4,54.1,29.94,NW,320,0.0,2.0,89,0.06,,,0.01,meteohub,2013-07-20 00:22:00,
2013-07-19 17:27:00,57.4,54.5,29.94,NW,320,0.0,1.0,90,0.07,,,0.03,meteohub,2013-07-20 00:27:00,
2013-07-19 17:32:00,57.0,54.1,29.94,NW,320,0.0,1.0,90,0.09,,,0.05,meteohub,2013-07-20 00:32:00,
2013-07-19 17:37:00,57.0,53.8,29.94,NW,320,0.0,0.0,89,0.09,,,0.05,meteohub,2013-07-20 00:37:00,
2013-07-19 17:42:00,56.8,54.0,29.94,NW,320,0.0,1.0,90,0.09,,,0.06,meteohub,2013-07-20 00:42:00,
2013-07-19 17:52:00,56.7,53.8,29.94,NW,320,0.0,1.0,90,0.08,,,0.07,meteohub,2013-07-20 00:52:00,
2013-07-19 17:57:00,56.7,53.8,29.94,NW,320,0.0,0.0,90,0.08,,,0.07,meteohub,2013-07-20 00:57:00,
2013-07-19 18:07:00,56.5,53.6,29.94,NW,320,0.0,0.0,90,0.08,,,0.08,meteohub,2013-07-20 01:07:00,
2013-07-19 18:12:00,56.5,53.6,29.94,NW,320,0.0,1.0,90,0.08,,,0.09,meteohub,2013-07-20 01:12:00,
2013-07-19 18:17:00,56.5,53.2,29.94,NW,320,1.0,1.0,89,0.08,,,0.09,meteohub,2013-07-20 01:17:00,
2013-07-19 18:22:00,56.5,54.0,29.94,NW,320,4.0,4.0,91,0.07,,,0.09,meteohub,2013-07-20 01:22:00,
2013-07-19 18:27:00,56.1,53.8,29.93,SE,146,2.0,5.0,92,0.07,,,0.10,meteohub,2013-07-20 01:27:00,
2013-07-19 18:32:00,55.9,53.6,29.93,East,92,0.0,5.0,92,0.05,,,0.10,meteohub,2013-07-20 01:32:00,
2013-07-19 18:37:00,56.1,54.1,29.93,East,86,2.0,5.0,93,0.06,,,0.11,meteohub,2013-07-20 01:37:00,
2013-07-19 18:42:00,56.3,53.4,29.92,East,92,3.0,7.0,90,0.05,,,0.11,meteohub,2013-07-20 01:42:00,
2013-07-19 18:47:00,56.7,53.8,29.92,East,90,3.0,7.0,90,0.04,,,0.11,meteohub,2013-07-20 01:47:00,
2013-07-19 18:52:00,56.8,53.6,29.91,ESE,102,4.0,8.0,89,0.04,,,0.11,meteohub,2013-07-20 01:52:00,
2013-07-19 18:57:00,56.8,53.2,29.91,ESE,113,1.0,8.0,88,0.03,,,0.11,meteohub,2013-07-20 01:57:00,
2013-07-19 19:02:00,57.0,53.8,29.91,SE,144,5.0,8.0,89,0.03,,,0.11,meteohub,2013-07-20 02:02:00,
2013-07-19 19:07:00,56.8,53.6,29.90,ESE,119,1.0,7.0,89,0.02,,,0.11,meteohub,2013-07-20 02:07:00,
2013-07-19 19:12:00,56.8,53.6,29.90,SE,126,1.0,7.0,89,0.02,,,0.11,meteohub,2013-07-20 02:12:00,
2013-07-19 19:17:00,56.8,53.6,29.90,ESE,123,1.0,9.0,89,0.02,,,0.11,meteohub,2013-07-20 02:17:00,
2013-07-19 19:47:00,56.5,52.9,29.90,East,93,1.0,6.0,88,0.00,,,0.11,meteohub,2013-07-20 02:47:00,
2013-07-19 19:52:00,56.7,53.1,29.90,SE,140,3.0,7.0,88,0.00,,,0.11,meteohub,2013-07-20 02:52:00,
2013-07-19 20:02:00,56.5,52.7,29.90,SE,140,1.0,7.0,87,0.00,,,0.11,meteohub,2013-07-20 03:02:00,
2013-07-19 20:12:00,55.8,52.5,29.90,SE,140,1.0,5.0,89,0.00,,,0.11,meteohub,2013-07-20 03:12:00,
2013-07-19 20:17:00,55.8,52.5,29.91,SE,140,0.0,3.0,89,0.00,,,0.11,meteohub,2013-07-20 03:17:00,
2013-07-19 20:22:00,55.8,52.9,29.91,SE,140,1.0,3.0,90,0.00,,,0.11,meteohub,2013-07-20 03:22:00,
2013-07-19 20:27:00,55.8,52.5,29.91,SE,140,0.0,3.0,89,0.00,,,0.11,meteohub,2013-07-20 03:27:00,
2013-07-19 20:32:00,55.8,52.9,29.91,SE,140,1.0,3.0,90,0.00,,,0.11,meteohub,2013-07-20 03:32:00,
2013-07-19 20:37:00,55.8,52.9,29.91,SE,140,1.0,3.0,90,0.00,,,0.11,meteohub,2013-07-20 03:37:00,
2013-07-19 20:42:00,55.8,52.9,29.92,SE,140,0.0,3.0,90,0.00,,,0.11,meteohub,2013-07-20 03:42:00,
2013-07-19 20:47:00,55.8,52.9,29.92,SE,140,0.0,3.0,90,0.00,,,0.11,meteohub,2013-07-20 03:47:00,
2013-07-19 20:52:00,55.6,53.1,29.92,SE,140,0.0,3.0,91,0.00,,,0.11,meteohub,2013-07-20 03:52:00,
2013-07-19 20:57:00,55.4,53.1,29.92,SE,140,1.0,1.0,92,0.00,,,0.11,meteohub,2013-07-20 03:57:00,
2013-07-19 21:02:00,55.2,52.9,29.93,SE,140,0.0,2.0,92,0.00,,,0.11,meteohub,2013-07-20 04:02:00,
2013-07-19 21:07:00,55.0,52.7,29.92,SE,140,0.0,2.0,92,0.00,,,0.11,meteohub,2013-07-20 04:07:00,
2013-07-19 21:12:00,55.0,52.7,29.93,SE,140,0.0,2.0,92,0.00,,,0.11,meteohub,2013-07-20 04:12:00,
2013-07-19 21:17:00,54.9,52.3,29.93,SE,140,0.0,0.0,91,0.00,,,0.11,meteohub,2013-07-20 04:17:00,
2013-07-19 21:22:00,54.9,52.9,29.93,SE,140,1.0,1.0,93,0.00,,,0.11,meteohub,2013-07-20 04:22:00,
2013-07-19 21:27:00,55.0,53.1,29.93,SE,140,0.0,2.0,93,0.00,,,0.11,meteohub,2013-07-20 04:27:00,
2013-07-19 21:32:00,54.9,52.5,29.93,SE,140,0.0,2.0,92,0.00,,,0.11,meteohub,2013-07-20 04:32:00,
2013-07-19 21:37:00,54.3,52.3,29.93,SE,140,1.0,2.0,93,0.00,,,0.11,meteohub,2013-07-20 04:37:00,
2013-07-19 21:42:00,54.3,52.3,29.93,SE,140,2.0,2.0,93,0.00,,,0.11,meteohub,2013-07-20 04:42:00,
2013-07-19 21:47:00,54.3,52.0,29.93,SE,140,0.0,3.0,92,0.00,,,0.11,meteohub,2013-07-20 04:47:00,
2013-07-19 21:52:00,54.0,51.6,29.93,SE,140,0.0,3.0,92,0.00,,,0.11,meteohub,2013-07-20 04:52:00,
2013-07-19 21:57:00,54.0,52.0,29.93,SE,140,0.0,3.0,93,0.00,,,0.11,meteohub,2013-07-20 04:57:00,
2013-07-19 22:02:00,53.8,51.8,29.94,SE,140,0.0,1.0,93,0.00,,,0.11,meteohub,2013-07-20 05:02:00,
2013-07-19 22:07:00,53.8,51.8,29.94,SE,140,0.0,2.0,93,0.00,,,0.11,meteohub,2013-07-20 05:07:00,
2013-07-19 22:12:00,53.8,51.8,29.94,SE,140,0.0,2.0,93,0.00,,,0.11,meteohub,2013-07-20 05:12:00,
2013-07-19 22:17:00,53.8,52.2,29.94,SE,140,0.0,2.0,94,0.00,,,0.11,meteohub,2013-07-20 05:17:00,
2013-07-19 22:22:00,53.8,51.8,29.95,SE,140,0.0,1.0,93,0.00,,,0.11,meteohub,2013-07-20 05:22:00,
2013-07-19 22:27:00,53.8,52.2,29.95,SE,140,0.0,2.0,94,0.00,,,0.11,meteohub,2013-07-20 05:27:00,
2013-07-19 22:32:00,54.0,52.5,29.95,SE,140,2.0,2.0,95,0.00,,,0.11,meteohub,2013-07-20 05:32:00,
2013-07-19 22:37:00,54.1,52.7,29.94,SE,140,0.0,2.0,95,0.00,,,0.11,meteohub,2013-07-20 05:37:00,
2013-07-19 22:42:00,54.0,52.0,29.94,SE,140,2.0,3.0,93,0.00,,,0.11,meteohub,2013-07-20 05:42:00,
2013-07-19 22:52:00,53.4,51.8,29.94,SE,140,0.0,4.0,94,0.00,,,0.11,meteohub,2013-07-20 05:52:00,
2013-07-19 23:02:00,53.4,51.8,29.94,East,98,0.0,5.0,94,0.00,,,0.11,meteohub,2013-07-20 06:02:00,
2013-07-19 23:07:00,53.4,51.8,29.94,East,98,0.0,5.0,94,0.00,,,0.11,meteohub,2013-07-20 06:07:00,
2013-07-19 23:12:00,53.4,51.8,29.94,East,98,0.0,3.0,94,0.00,,,0.11,meteohub,2013-07-20 06:12:00,
2013-07-19 23:17:00,53.4,51.8,29.94,ESE,103,1.0,2.0,94,0.00,,,0.11,meteohub,2013-07-20 06:17:00,
2013-07-19 23:22:00,53.4,51.4,29.94,ESE,121,1.0,3.0,93,0.00,,,0.11,meteohub,2013-07-20 06:22:00,
2013-07-19 23:27:00,53.1,51.1,29.94,ESE,121,0.0,4.0,93,0.00,,,0.11,meteohub,2013-07-20 06:27:00,
2013-07-19 23:37:00,52.9,51.3,29.93,ESE,121,0.0,3.0,94,0.00,,,0.11,meteohub,2013-07-20 06:37:00,
2013-07-19 23:42:00,52.9,51.3,29.93,ESE,121,0.0,1.0,94,0.00,,,0.11,meteohub,2013-07-20 06:42:00,
2013-07-19 23:47:00,52.5,50.9,29.93,ESE,121,1.0,2.0,94,0.00,,,0.11,meteohub,2013-07-20 06:47:00,
2013-07-19 23:57:00,52.9,51.3,29.93,SE,127,0.0,3.0,94,0.00,,,0.11,meteohub,2013-07-20 06:57:00,